Regional Weather Roundup
Issued by NWS

Home | Current Version | Previous Version | Graphics & Text | Print | Product List | Glossary Off
Versions: 1 2 3 4 5 6 7 8 9 10 11 12 13 14 15 16 17 18 19 20 21 22 23 24 25 26 27 28 29 30 31 32 33 34 35 36 37 38 39 40 41 42 43 44 45 46 47 48 49 50

000
ASUS43 KMPX 131901
RWRMN
WEATHER ROUNDUP FOR MINNESOTA
NATIONAL WEATHER SERVICE TWIN CITIES/CHANHASSEN MN
100 PM CST WED DEC 13 2017


NOTE: "FAIR" INDICATES FEW OR NO CLOUDS BELOW 12,000 FEET WITH NO
SIGNIFICANT WEATHER AND/OR OBSTRUCTIONS TO VISIBILITY. N/A MEANS
CURRENT SKY AND/OR WEATHER CONDITIONS ARE NOT AVAILABLE.

MNZ060>063-068>070-132000-
   Twin Cities Metro

CITY           SKY/WX    TMP DP  RH WIND       PRES   REMARKS
TWIN CITIES    CLOUDY    24  18  77 N21G29    29.61R WCI   9
ST PAUL        CLOUDY    24  17  74 NW24G30   29.62R WCI   8
CRYSTAL        CLOUDY    24  15  68 N20       29.61R WCI  10
BLAINE         CLOUDY    25  18  74 NW18G26   29.60R WCI  11
LAKEVILLE      CLOUDY    25  19  80 NW22      29.57S WCI  10
EDEN PRAIRIE   CLOUDY    26  19  74 NW18G29   29.61R WCI  13
SOUTH ST PAUL  CLOUDY    25  17  73 N15       29.60R WCI  12
LAKE ELMO      CLOUDY    25  19  80 N14G20    29.59R WCI  13
$$
MNZ001>005-007-008-013>017-022>024-027-028-132000-
   Northwest Minnesota

CITY           SKY/WX    TMP DP  RH WIND       PRES   REMARKS
BEMIDJI        LGT SNOW  16  12  86 N10       29.72R WCI   3
HALLOCK        CLOUDY    21  18  86 N15       29.82R WCI   8
ROSEAU         LGT SNOW  18  12  79 N8        29.78S WCI   7
WARROAD        LGT SNOW  16  10  79 N10       29.78S WCI   3
THIEF RVR FALL LGT SNOW  19  16  86 N17       29.78R FOG     WCI   4
CROOKSTON      CLOUDY    21  19  93 N21G28    29.80R WCI   6
FOSSTON        LGT SNOW  18  16  93 N16       29.75R WCI   3
DETROIT LAKES  PTSUNNY   23  21  93 N29G35    29.73R WCI   6
MOORHEAD       CLOUDY    27  23  86 N24G30    29.78S WCI  12
PARK RAPIDS    CLOUDY    19  15  84 N15       29.69R WCI   5
MAHNOMEN       CLOUDY    20  19  92 N14       29.74R WCI   7
$$
MNZ006-009>011-018-025>026-132000-
   North Central Minnesota

CITY           SKY/WX    TMP DP  RH WIND       PRES   REMARKS
BAUDETTE       LGT SNOW  15  11  83 N8        29.75R FOG     WCI   4
FLAG ISLAND    MOSUNNY   12   9  85 N8        29.77S WCI   1
INTL FALLS     LGT SNOW  18  11  74 N7        29.73R WCI   9
WASKISH        LGT SNOW  18  12  79 N8        29.74R WCI   7
BIG FORK       FLURRIES  21  14  73 VRB5      29.69R WCI  15
LONGVILLE      LGT SNOW  18  14  86 NW6       29.69R WCI   9
GRAND RAPIDS   FLURRIES  20  16  84 N10       29.67R WCI   9
CRANE LAKE     LGT SNOW  18  12  79 CALM      29.73R
ORR            MIX PCPN  19  12  73 CALM      29.66R
COOK           CLOUDY    19  14  79 N5        29.68R WCI  13
WALKER         LGT SNOW  17  13  88 N10       29.70R WCI   4
$$
MNZ012-019>021-037-132000-
   Northeast Minnesota

CITY           SKY/WX    TMP DP  RH WIND       PRES   REMARKS
DULUTH         LGT SNOW  22  19  89 NE10      29.59R FOG     WCI  11
ELY            LGT SNOW  18  12  79 N5        29.65R WCI  11
HIBBING        CLOUDY    20  14  77 N10       29.65R WCI   9
EVELETH        LGT SNOW  20  14  77 N8        29.64R WCI  10
DULUTH HARBOR  LGT SNOW  27  23  86 NE28      29.63R WCI  11
TWO HARBORS    LGT SNOW  27  21  80 NE12G20   29.60R WCI  16
GRAND MARAIS     N/A     21  14  74 NE10G18   29.68R WCI  10
G MARAIS ARPRT LGT SNOW  12   7  79 N12G18    29.61R WCI  -2
$$
MNZ029>031-032-039>041-046>048-054>057-064-132000-
   West Central Minnesota

CITY           SKY/WX    TMP DP  RH WIND       PRES   REMARKS
FERGUS FALLS   CLOUDY    25  23  93 N16G28    29.78R WCI  12
WHEATON        CLOUDY    30  25  80 NW15G23   29.80R WCI  19
MORRIS         CLOUDY    28  25  86 N24G35    29.73S WCI  14
ALEXANDRIA     CLOUDY    26  20  77 N22G33    29.69R WCI  12
ELBOW LAKE     CLOUDY    26  23  91 NW20G32   29.74R FOG     WCI  12
WADENA         CLOUDY    21  18  86 NW14G24   29.69R WCI   8
GLENWOOD       MOSUNNY   27  21  80 NW22G38   29.69R WCI  12
APPLETON       CLOUDY    32  25  74 NW25G33   29.76R WCI  19
BENSON         CLOUDY    30  25  80 N24G37    29.74R WCI  16
ORTONVILLE     CLOUDY    32  25  74 NW20G33   29.77R WCI  20
MADISON        CLOUDY    36  27  69 N25G38    29.77R
WILLMAR        CLOUDY    28  25  86 NW28G35   29.70R WCI  13
$$
MNZ033>034-036-042>043-049>051-058-059-132000-
   Central Minnesota

CITY           SKY/WX    TMP DP  RH WIND       PRES   REMARKS
ST CLOUD       CLOUDY    24  20  84 N18       29.65R WCI  10
SAUK CENTRE    CLOUDY    24  20  85 NW22G32   29.67R WCI   9
PAYNESVILLE    CLOUDY    27  23  87 NW15G29   29.67R WCI  15
AITKIN         CLOUDY    18  14  86 NW12G18   29.65R WCI   5
PINE RIVER     CLOUDY    18  12  79 N9        29.72R WCI   6
BRAINERD       CLOUDY    20  15  81 NW15      29.67R HAZE    WCI   6
STAPLES        CLOUDY    19  18  93 N12       29.68R WCI   7
LONG PRAIRIE   CLOUDY    25  21  86 W21       29.66R FOG     WCI  10
LITTLE FALLS   CLOUDY    23  16  74 NW9G18    29.67R WCI  13
LITCHFIELD     CLOUDY    28  25  86 NW17G29   29.67R WCI  16
BUFFALO        CLOUDY    25  19  80 NW12G22   29.65R WCI  14
MAPLE LAKE     CLOUDY    25  22  87 N15G21    29.66R WCI  13
HUTCHINSON     CLOUDY    30  25  82 NW21G31   29.65R WCI  17
$$
MNZ037-044-045-052-053-132000-
   East Central Minnesota

CITY           SKY/WX    TMP DP  RH WIND       PRES   REMARKS
PRINCETON      CLOUDY    23  18  80 NW14G21   29.64R WCI  11
MORA           PTSUNNY   21  18  86 NW13      29.63R WCI   9
CAMBRIDGE      CLOUDY    25  16  68 NW14G20   29.62R WCI  13
RUSH CITY      CLOUDY    23  18  80 NW12      29.61R WCI  12
MOOSE LAKE     LGT SNOW  27  19  74 N10G17    29.58S WCI  17
HINCKLEY       CLOUDY    25  21  86 NW12      29.60R WCI  14
CLOQUET        LGT SNOW  25  18  74 N8        29.59R WCI  16
MCGREGOR       CLOUDY    23  19  86 NW13      29.64R WCI  11
$$
MNZ071>073-080-081-089-090-097-098-132000-
   Southwest Minnesota

CITY           SKY/WX    TMP DP  RH WIND       PRES   REMARKS
MONTEVIDEO     CLOUDY    32  25  74 N29G40    29.73R WCI  18
GRANITE FALLS  CLOUDY    33  26  76 NW23G32   29.74R WCI  21
CANBY          CLOUDY    34  27  77 NW23G30   29.78S WCI  22
MARSHALL       CLOUDY    33  24  69 N28G41    29.74R WCI  20
REDWOOD FALLS  CLOUDY    31  23  72 NW23G39   29.69R WCI  18
OLIVIA         CLOUDY    30  27  86 NW25G36   29.68R WCI  16
PIPESTONE      CLOUDY    34  28  80 N20G30    29.74S WCI  22
WINDOM           N/A     34  19  55 NW43G53   29.67S WCI  18
WORTHINGTON    CLOUDY    33  28  81 NW30G39   29.72R WCI  19
JACKSON        CLOUDY    32  25  74 MISG      29.68R
SLAYTON        CLOUDY    32  29  88 NW24G35   29.73R WCI  19
$$
MNZ065>067-074>077-082>085-091>093-132000-
   South Central Minnesota

CITY           SKY/WX    TMP DP  RH WIND       PRES   REMARKS
MANKATO        CLOUDY    30  25  81 NW24G33   29.62R WCI  16
NEW ULM        CLOUDY    30  23  74 NW28G37   29.65R WCI  16
ST JAMES       CLOUDY    30  25  80 NW30G43   29.67R WCI  15
FAIRMONT       CLOUDY    33  26  75 NW38G46   29.63R WCI  18
GLENCOE        CLOUDY    30  26  86 NW22G28   29.63R WCI  17
FARIBAULT      CLOUDY    27  23  86 NW16G24   29.58R WCI  14
OWATONNA       CLOUDY    30  27  86 NW29G37   29.56R WCI  15
WASECA         CLOUDY    32  28  86 NW25G32   29.59R WCI  19
ALBERT LEA     CLOUDY    30  25  80 NW21G31   29.55R WCI  17
$$
MNZ078>079-086>088-094>096-132000-
   Southeast Minnesota

CITY           SKY/WX    TMP DP  RH WIND       PRES   REMARKS
ROCHESTER      CLOUDY    26  23  88 NW30G38   29.50R WCI  10
RED WING       CLOUDY    25  16  68 N14G26    29.56R WCI  13
STANTON        CLOUDY    28  20  75 N17       29.56R WCI  15
DODGE CENTER   CLOUDY    27  21  80 NW21G35   29.52R WCI  13
WINONA           N/A     28  21  74 NW15G25   29.51R WCI  17
PRESTON        CLOUDY    26  21  83 NW23G31   29.48R WCI  11
$$
ABBREVIATIONS USED IN REMARKS
   TC - TEMPERATURES IN CELSIUS
  WCI - WIND CHILL INDEX
   HX - HEAT INDEX
  VSB - VISIBILITY
$$




USA.gov is the U.S. government's official web portal to all federal, state and local government web resources and services.